This is the latest recevied weather packets stored in our database for station/object N8SHA. If no packets are shown the sender has not sent any weather packets the latest 10 day(s).
| Time | Temp. | Humidity | Pressure | Rain* | Wind** | Luminosity | Snow |
|---|---|---|---|---|---|---|---|
| 1777899003 | 12.22° C | 72% | 1004.7 hPa | 0 mm | - | 224 W/m² | - |
| 1777898699 | 12.22° C | 72% | 1004.4 hPa | 0 mm | - | 237 W/m² | - |
| 1777898397 | 12.22° C | 73% | 1004.4 hPa | 0 mm | - | 186 W/m² | - |
| 1777898094 | 11.67° C | 73% | 1004.4 hPa | 0 mm | - | 127 W/m² | - |
| 1777897790 | 11.67° C | 73% | 1004.6 hPa | 0 mm | - | 207 W/m² | - |
| 1777897487 | 11.11° C | 74% | 1004.3 hPa | 0 mm | - | 184 W/m² | - |
| 1777897183 | 11.11° C | 75% | 1004.3 hPa | 0 mm | - | 88 W/m² | - |
| 1777896879 | 11.11° C | 75% | 1004.3 hPa | 0 mm | - | 123 W/m² | - |
| 1777896576 | 10.56° C | 76% | 1004.2 hPa | 0 mm | - | 58 W/m² | - |
| 1777896273 | 10.56° C | 77% | 1004.4 hPa | 0 mm | - | 58 W/m² | - |
| 1777895972 | 10° C | 77% | 1004.3 hPa | 0 mm | - | 45 W/m² | - |
| 1777895669 | 10° C | 78% | 1004.3 hPa | 0 mm | - | 46 W/m² | - |
| 1777895366 | 10° C | 78% | 1004.4 hPa | 0 mm | - | 50 W/m² | - |
| 1777895064 | 10° C | 78% | 1004.3 hPa | 0 mm | - | 43 W/m² | - |
| 1777894760 | 9.44° C | 79% | 1004.3 hPa | 0 mm | - | 39 W/m² | - |
| 1777894457 | 9.44° C | 79% | 1004.4 hPa | 0 mm | - | 39 W/m² | - |
| 1777894155 | 9.44° C | 79% | 1004.3 hPa | 0 mm | - | 33 W/m² | - |
| 1777893852 | 9.44° C | 80% | 1004.4 hPa | 0 mm | - | 30 W/m² | - |
| 1777893548 | 9.44° C | 80% | 1004.5 hPa | 0 mm | - | 28 W/m² | - |
| 1777893244 | 8.89° C | 80% | 1004.3 hPa | 0 mm | - | 25 W/m² | - |
| 1777892941 | 8.89° C | 80% | 1004.2 hPa | 0 mm | - | 22 W/m² | - |
| 1777892638 | 8.89° C | 80% | 1004.4 hPa | 0 mm | - | 20 W/m² | - |
| 1777892333 | 8.89° C | 80% | 1004.2 hPa | 0 mm | - | 18 W/m² | - |
| 1777892029 | 8.89° C | 81% | 1004.2 hPa | 0 mm | - | 16 W/m² | - |
| 1777891727 | 8.89° C | 81% | 1004.2 hPa | 0 mm | - | 13 W/m² | - |
* Rain latest hour (hover to see other rain measurements)
** Current wind speed in m/s (hover to see current wind gust speed)